Valparaiso, IN

6:54 PM CST on December 04, 2016 (GMT -0600)
Porter County Municipal

Weather History for KVPZ - May, 2013

Change the Weather History Date:

Friday, May 3, 2013

  Actual Average Record
Temperature  
Mean Temperature 52 °F 55 °F  
Max Temperature 64 °F 66 °F 86 °F (2001)
Min Temperature 40 °F 44 °F 31 °F (2004)
Degree Days  
Heating Degree Days 13 10  
Month to date heating degree days 26 31  
Since 1 July heating degree days 5919 6090  
Cooling Degree Days 0 0  
Month to date cooling degree days 6 0  
Year to date cooling degree days 12 5  
Growing Degree Days 2 (Base 50)    
Moisture  
Dew Point 46 °F    
Average Humidity 84    
Maximum Humidity 93    
Minimum Humidity 63    
Precipitation  
Precipitation 0.15 in 0.14 in 0.15 in (2013)
Month to date precipitation 0.15 0.42  
Year to date precipitation 10.42 9.60  
Sea Level Pressure  
Sea Level Pressure 30.02 in    
Wind  
Wind Speed 6 mph (North)    
Max Wind Speed 14 mph    
Max Gust Speed 21 mph    
Visibility 9 miles    
Events Rain    
T = Trace of Precipitation, MM = Missing Value Source: NWS Daily Summary

Daily Weather History Graph

Daily Weather History Graph

Search for Another Location

Airport or City:

Trip Planner

Search our weather history database for the weather conditions in past years. The results will help you decide how hot, cold, wet, or windy it might be!

Date:

Astronomy

May. 03, 2013 Rise Set
Actual Time 5:42 AM CDT 7:48 PM CDT
Civil Twilight 5:11 AM CDT 8:18 PM CDT
Nautical Twilight 4:34 AM CDT 8:55 PM CDT
Astronomical Twilight 3:54 AM CDT 9:36 PM CDT
Moon 2:11 AM CDT (5/3) 1:38 PM CDT (5/3)
Length of Visible Light 15h 06m
Length of Day
14h 05m
Last Quarter, 37% of the Moon is Illuminated
May 3
Last Quarter
May 9
New
May 17
First Quarter
May 24
Full
May 31
Last Quarter

Hourly Weather History & Observations

Time (CDT) Temp. Windchill Dew Point Humidity Pressure Visibility Wind Dir Wind Speed Gust Speed Precip Events Conditions
12:53 AM 41.0 °F 34.7 °F 37.9 °F 89% 30.11 in 10.0 mi North 10.4 mph - N/A   Overcast
1:53 AM 39.9 °F 34.5 °F 37.9 °F 93% 30.10 in 10.0 mi North 8.1 mph - N/A   Overcast
2:53 AM 39.9 °F 33.9 °F 37.9 °F 93% 30.08 in 10.0 mi North 9.2 mph - N/A   Overcast
3:53 AM 41.0 °F 35.8 °F 39.0 °F 93% 30.08 in 10.0 mi North 8.1 mph - N/A   Overcast
4:11 AM 41.0 °F 36.4 °F 39.2 °F 93% 30.07 in 10.0 mi North 6.9 mph - N/A   Overcast
4:53 AM 41.0 °F 37.1 °F 39.0 °F 93% 30.07 in 10.0 mi NNW 5.8 mph - N/A   Overcast
5:53 AM 41.0 °F 37.1 °F 39.0 °F 93% 30.07 in 10.0 mi North 5.8 mph - N/A   Overcast
6:53 AM 42.1 °F 37.7 °F 39.9 °F 92% 30.07 in 9.0 mi NNW 6.9 mph - N/A   Overcast
7:53 AM 44.1 °F 40.8 °F 41.0 °F 89% 30.06 in 10.0 mi NNW 5.8 mph - N/A   Overcast
8:21 AM 44.6 °F 40.7 °F 41.0 °F 87% 30.05 in 10.0 mi North 6.9 mph - N/A   Mostly Cloudy
8:53 AM 46.0 °F 42.5 °F 42.1 °F 86% 30.06 in 6.0 mi NNW 6.9 mph - N/A   Overcast
9:53 AM 51.1 °F - 44.1 °F 77% 30.05 in 10.0 mi NNW 4.6 mph - N/A   Partly Cloudy
10:53 AM 53.1 °F - 45.0 °F 74% 30.06 in 10.0 mi Calm Calm - N/A   Overcast
11:53 AM 55.0 °F - 48.9 °F 80% 30.04 in 10.0 mi North 4.6 mph - 0.01 in   Overcast
12:53 PM 59.0 °F - 52.0 °F 78% 30.03 in 10.0 mi Calm Calm - N/A   Mostly Cloudy
1:53 PM 62.1 °F - 53.1 °F 72% 30.01 in 10.0 mi NW 5.8 mph - N/A   Scattered Clouds
2:53 PM 64.0 °F - 52.0 °F 65% 29.98 in 10.0 mi North 5.8 mph - N/A   Mostly Cloudy
3:53 PM 62.1 °F - 51.1 °F 67% 29.97 in 10.0 mi North 8.1 mph - N/A   Clear
4:24 PM 60.8 °F - 48.2 °F 63% 29.95 in 4.0 mi North 9.2 mph - N/A   Haze
4:53 PM 55.9 °F - 48.9 °F 77% 29.96 in 10.0 mi North 4.6 mph - 0.01 in Rain Light Rain
5:53 PM 54.0 °F - 48.0 °F 80% 29.97 in 8.0 mi NNE 6.9 mph - 0.07 in Rain Light Rain
6:53 PM 53.1 °F - 50.0 °F 89% 29.96 in 9.0 mi North 6.9 mph - 0.05 in   Overcast
7:53 PM 54.0 °F - 51.1 °F 90% 29.96 in 8.0 mi NNE 6.9 mph - 0.01 in   Scattered Clouds
8:53 PM 55.0 °F - 52.0 °F 89% 29.97 in 10.0 mi NE 6.9 mph - N/A   Overcast
9:53 PM 55.0 °F - 52.0 °F 89% 29.96 in 9.0 mi NNE 4.6 mph - N/A   Scattered Clouds
10:53 PM 55.0 °F - 53.1 °F 93% 29.95 in 9.0 mi NE 4.6 mph - N/A   Clear
11:53 PM 57.0 °F - 53.1 °F 87% 29.96 in 10.0 mi East 4.6 mph - N/A   Clear